This is the latest recevied weather packets stored in our database for station/object WA6OOO. If no packets are shown the sender has not sent any weather packets the latest 10 day(s).
| Time | Temp. | Humidity | Pressure | Rain* | Wind** | Luminosity | Snow |
|---|---|---|---|---|---|---|---|
| 1777904088 | 12.22° C | 83% | 1017.8 hPa | 0 mm | - | 45 W/m² | - |
| 1777903785 | 11.67° C | 84% | 1017.6 hPa | 0 mm | - | 97 W/m² | - |
| 1777903482 | 11.67° C | 83% | 1017.7 hPa | 0 mm | - | 78 W/m² | - |
| 1777903178 | 11.11° C | 84% | 1017.7 hPa | 0 mm | - | 65 W/m² | - |
| 1777902874 | 11.11° C | 85% | 1017.8 hPa | 0 mm | - | 45 W/m² | - |
| 1777902572 | 11.11° C | 86% | 1017.8 hPa | 0 mm | - | 32 W/m² | - |
| 1777902268 | 11.11° C | 86% | 1017.8 hPa | 0 mm | - | 34 W/m² | - |
| 1777901967 | 11.67° C | 85% | 1017.9 hPa | 0 mm | - | 27 W/m² | - |
| 1777901664 | 11.67° C | 86% | 1017.9 hPa | 0 mm | - | 19 W/m² | - |
| 1777901361 | 11.11° C | 86% | 1017.9 hPa | 0 mm | - | 15 W/m² | - |
| 1777901059 | 11.11° C | 87% | 1017.7 hPa | 0 mm | - | 11 W/m² | - |
| 1777900756 | 11.11° C | 88% | 1017.7 hPa | 0 mm | - | 9 W/m² | - |
| 1777900453 | 11.11° C | 88% | 1017.6 hPa | 0 mm | - | 4 W/m² | - |
| 1777900150 | 11.11° C | 88% | 1017.5 hPa | 0 mm | - | 3 W/m² | - |
| 1777899846 | 11.11° C | 88% | 1017.7 hPa | 0 mm | - | 2 W/m² | - |
| 1777899543 | 11.11° C | 89% | 1017.5 hPa | 0 mm | - | 1 W/m² | - |
| 1777899241 | 10.56° C | 89% | 1017.5 hPa | 0 mm | - | 0 W/m² | - |
| 1777898938 | 10.56° C | 89% | 1017.6 hPa | 0 mm | - | 0 W/m² | - |
| 1777898635 | 11.11° C | 88% | 1017.5 hPa | 0 mm | - | 0 W/m² | - |
| 1777898332 | 11.11° C | 89% | 1017.5 hPa | 0 mm | - | 0 W/m² | - |
| 1777898030 | 11.67° C | 89% | 1017.3 hPa | 0 mm | - | 0 W/m² | - |
| 1777897725 | 11.67° C | 89% | 1017.5 hPa | 0 mm | - | 0 W/m² | - |
| 1777897422 | 11.67° C | 89% | 1017.2 hPa | 0 mm | - | 0 W/m² | - |
| 1777897118 | 11.67° C | 89% | 1017.4 hPa | 0 mm | - | 0 W/m² | - |
| 1777896815 | 11.67° C | 90% | 1017.4 hPa | 0 mm | - | 0 W/m² | - |
* Rain latest hour (hover to see other rain measurements)
** Current wind speed in m/s (hover to see current wind gust speed)